Location: Browne Barr
(41.2080°N, 111.9480°W)
Time: 03:53:31
(UTC+00:00)

Hubble Space Telescope - Visible Passes

Search period start: 05 April 2020 00:00
Search period end: 15 April 2020 00:00
Orbit: 536 x 540 km, 28.5° (Epoch: 04 April)

Date Brightness Start Highest point End Pass type
(mag) Time Alt. Az. Time Alt. Az. Time Alt. Az.
08 Apr 3.0 03:15:41 10° S 03:16:59 11° S 03:17:07 11° SSE visible
09 Apr 2.9 03:04:29 10° SSW 03:06:12 12° S 03:07:15 11° SSE visible
10 Apr 2.9 02:53:28 10° SSW 02:55:24 13° S 02:57:19 10° SSE visible
11 Apr 2.9 02:42:32 10° SSW 02:44:37 14° S 02:46:42 10° SSE visible
12 Apr 2.9 02:31:42 10° SSW 02:33:50 14° S 02:35:58 10° SSE visible
